Volver al catálogo

STARLINK-35774

ActivoComunicacionesVLEO
NORAD 66283·PAYLOAD·🇺🇸 United States

Lanzado Oct 31, 2025 desde Vandenberg Space Force Base

Loading…

Próximos Pases (próximas 24 horas)

TLE

ActualizadoSource: CelesTrak SupGP

Época: Sep 14, 2026, 22:49 UTC

1 66283C 25247U   26257.95118056 -.00002827  00000+0 -83541-4 0  2574
2 66283  53.1600  29.4843 0001160  83.7830 171.6348 15.34383816    12

Sigue STARLINK-35774 en tiempo real con AllMySat

Download on the App Store